Wind_Speed
31 29 29 30 29 29 28 27 25 21 19 16 16 16 15 13 12 12 12 12 12 11 11 10 9 9 10 10 12 12 13 14 15 16 16 17 18 20 22 23 23 24 24 25
34 32 32 32 31 31 30 28 26 24 21 18 18 18 16 15 14 13 13 12 12 12 12 11 11 11 11 11 12 13 14 15 16 17 18 19 20 21 22 23 24 26 27 27
37 35 35 33 30 31 31 30 27 25 22 21 20 19 18 16 15 15 15 14 14 14 13 13 13 13 14 13 14 15 15 16 17 18 18 20 21 22 23 25 26 27 28 29
36 35 36 31 30 30 31 30 29 26 24 22 20 20 19 18 17 17 16 16 15 15 15 15 14 14 15 17 17 18 18 18 18 19 20 21 22 23 25 27 28 30 31 32
34 34 33 31 29 29 29 29 28 27 25 23 21 21 20 19 18 18 18 18 18 18 17 17 17 16 16 17 19 20 21 21 21 21 22 23 25 26 27 29 30 31 32 33
31 32 31 29 28 28 28 28 27 26 26 24 22 22 21 20 20 20 20 20 19 19 19 19 19 19 19 19 20 21 22 22 23 24 25 26 27 29 30 30 32 32 31 33
28 29 28 28 27 27 29 26 26 26 25 24 23 22 23 22 22 22 21 21 21 21 20 20 20 21 21 21 21 22 23 24 24 26 27 28 29 30 30 31 32 33 34 35
26 27 26 25 26 27 26 26 26 26 25 24 23 23 23 23 23 23 22 22 22 22 22 22 22 22 22 22 23 24 24 26 26 27 28 29 30 31 32 32 34 36 36 38
23 24 23 23 23 25 25 24 24 25 25 25 24 24 24 25 25 24 24 23 22 23 22 22 23 23 23 24 24 25 26 28 29 30 30 31 32 33 34 35 36 37 37 39
19 19 18 19 21 22 22 23 24 24 24 25 25 25 25 25 25 25 25 24 23 23 23 24 24 24 25 26 26 27 28 28 29 30 31 32 32 33 34 35 36 37 38 39
17 18 17 17 19 19 20 20 21 22 23 25 25 25 26 26 26 25 25 24 24 24 24 23 24 25 26 27 28 29 29 29 29 30 31 32 32 33 35 36 37 37 38 39
12 14 16 17 17 17 18 18 19 21 23 23 24 24 24 25 25 25 25 24 24 24 24 24 25 26 27 27 28 29 30 30 31 32 32 33 34 35 36 37 38 39 40 41
12 12 13 13 14 15 16 16 17 18 21 23 23 23 24 24 24 24 23 23 24 24 24 24 25 26 27 29 29 30 31 32 32 33 34 35 36 37 38 39 40 41 42 42
10 10 11 11 11 14 14 14 15 16 18 20 20 21 22 22 22 21 21 21 22 22 23 24 26 26 27 28 30 31 32 32 33 34 35 36 37 38 39 39 41 42 43 44
10 10 9 8 9 10 12 12 13 14 16 16 16 18 18 18 17 18 19 20 21 22 23 24 25 26 28 29 30 31 32 33 35 36 37 38 38 39 40 42 43 44 45 46
10 10 9 9 8 9 10 11 12 12 12 13 14 15 16 15 16 17 18 19 20 21 22 24 26 28 29 31 32 34 35 36 37 38 38 40 41 42 43 45 46 47 48 48
8 8 8 9 9 9 10 9 10 12 12 12 12 13 14 14 15 16 17 19 20 21 23 25 27 29 31 32 34 35 36 37 38 40 41 42 44 45 46 48 48 49 50 50
9 9 9 9 9 8 8 9 10 10 10 11 12 12 14 14 15 17 18 20 22 24 26 27 29 31 33 34 36 36 38 39 41 42 44 45 47 48 49 50 51 51 52 53
8 8 8 8 9 8 8 9 10 10 11 11 12 13 14 16 18 19 21 22 24 26 28 30 31 33 35 36 37 39 41 42 44 45 46 48 49 50 51 51 51 52 52 52
10 10 10 10 10 10 9 9 9 11 11 13 14 15 17 18 20 22 23 25 27 29 30 32 34 35 37 38 40 41 43 44 46 47 49 50 50 50 50 50 50 50 49 49
11 11 11 10 10 10 10 11 12 13 14 15 17 18 20 21 23 24 26 28 29 31 33 34 36 37 39 41 43 44 45 47 48 48 49 49 49 49 48 48 48 47 46 46
11 11 11 11 11 12 12 13 14 15 17 18 19 21 22 24 25 27 29 30 31 33 35 36 38 40 41 43 45 46 47 48 48 48 47 47 46 45 45 44 44 43 42 41
12 12 12 13 13 14 14 15 17 18 19 21 22 23 24 26 27 29 30 32 34 35 37 39 40 42 43 44 45 46 46 45 45 44 43 42 42 42 41 40 39 37 36 35
12 13 13 14 15 16 17 18 19 20 21 23 24 25 27 28 30 31 33 34 36 37 38 40 41 42 43 43 43 42 42 41 40 39 38 38 38 37 36 34 33 32 31 31
14 15 16 17 18 19 20 21 22 23 25 26 27 28 30 31 32 34 35 36 37 38 39 40 41 40 40 40 40 39 38 37 36 35 35 34 33 31 30 29 29 28 28 28
17 18 19 20 20 21 22 23 25 26 27 28 29 30 32 33 34 35 36 37 38 38 39 39 39 38 38 37 37 36 35 34 33 32 31 30 29 28 27 26 26 25 25 24
19 20 21 22 23 23 24 25 26 27 28 30 31 32 33 34 34 35 35 36 36 37 37 36 35 35 35 34 33 32 31 30 30 29 29 28 27 25 25 24 23 22 21 20
Wind_Direction
260 257 253 251 249 249 252 255 258 261 264 267 267 268 268 272 271 271 268 266 262 254 243 242 242 239 237 232 226 226 227 227 228 231 236 239 243 242 244 248 250 253 254 257
261 261 260 256 251 250 252 253 257 259 258 261 263 264 265 267 267 264 263 263 261 256 250 248 248 245 242 240 234 233 235 236 236 240 243 244 246 249 252 254 255 256 259 262
261 260 260 257 254 251 251 254 255 257 257 258 260 258 257 260 260 259 256 255 254 252 253 252 251 247 243 242 241 242 243 244 244 247 249 250 252 255 258 260 261 262 263 265
259 258 258 258 253 250 249 250 253 255 257 257 256 253 253 256 254 255 253 250 250 251 253 253 253 252 249 248 248 248 248 249 251 253 256 256 256 258 259 261 264 266 267 266
257 257 257 255 254 250 249 248 250 251 252 255 255 251 250 255 254 253 250 248 248 251 254 255 255 255 256 256 255 256 256 255 257 258 260 261 262 263 265 266 269 271 270 269
255 255 255 254 253 250 247 245 245 247 249 253 253 253 250 252 253 251 251 251 250 252 254 256 257 259 261 262 262 261 259 259 260 262 264 265 266 269 271 271 272 273 275 276
255 254 253 252 249 247 243 243 243 245 246 250 251 252 249 249 252 253 254 253 251 251 252 255 259 262 264 265 265 264 263 262 262 264 267 269 271 273 275 275 277 277 278 279
253 252 251 250 246 244 243 243 242 242 243 246 246 247 246 247 250 250 251 253 253 253 252 256 259 263 266 267 266 266 267 268 268 268 269 272 274 277 276 276 279 280 279 280
250 250 249 246 244 242 241 240 240 239 241 243 242 242 243 246 249 246 247 251 253 254 254 258 260 264 267 268 269 268 269 272 274 274 274 276 278 278 279 279 278 278 279 279
246 245 242 242 241 238 237 238 236 236 239 241 241 241 243 246 244 244 248 251 253 254 255 259 262 265 266 268 271 272 274 276 276 277 278 279 280 280 280 280 280 280 281 282
243 236 237 239 237 236 235 235 235 237 237 239 239 242 243 243 243 244 248 250 253 255 258 263 266 269 271 272 273 275 277 279 278 278 278 280 281 282 282 282 283 283 283 284
239 233 231 232 234 235 234 235 235 235 238 240 239 236 238 241 242 245 248 251 253 256 261 264 267 269 271 273 275 277 279 281 282 283 285 285 285 285 285 285 285 285 285 285
242 239 234 228 230 230 233 233 234 235 237 237 237 241 240 239 240 242 245 248 252 257 261 266 268 271 275 277 278 280 282 284 285 286 287 287 287 286 287 287 287 286 286 286
235 233 231 227 224 224 224 229 232 237 239 237 238 238 238 240 240 242 246 250 255 260 264 268 271 273 277 279 281 283 285 285 285 286 287 287 287 287 287 287 287 287 287 286
227 228 228 225 222 218 221 225 229 232 231 231 235 234 235 239 243 248 251 255 259 264 268 271 274 277 280 282 283 285 286 286 287 289 289 289 288 289 289 289 289 289 288 288
221 223 225 221 219 218 220 222 224 227 230 234 236 236 236 240 246 251 256 261 264 268 272 275 278 281 283 285 286 286 288 289 290 290 290 290 289 290 290 290 290 290 289 289
221 219 217 218 222 220 220 223 226 228 230 231 235 238 243 249 254 259 265 270 273 277 280 282 283 285 287 288 288 288 289 289 290 290 290 290 290 291 291 291 291 290 290 289
225 221 220 222 223 219 217 219 221 224 231 236 243 252 258 261 266 271 275 278 280 282 285 287 288 289 289 290 290 290 291 291 291 291 291 291 292 292 291 291 291 291 291 290
221 224 226 227 229 229 227 225 227 235 246 252 257 262 265 270 274 277 281 283 285 287 288 289 290 290 291 291 291 291 292 292 293 293 293 292 292 292 292 292 292 292 292 292
223 227 229 231 234 237 238 238 244 251 258 265 268 271 276 280 282 283 285 286 288 288 289 290 290 291 291 291 292 292 293 294 294 294 293 293 293 292 292 293 293 293 293 294
230 232 236 238 241 246 252 258 263 268 272 275 277 279 281 283 284 286 287 289 290 291 291 292 292 293 293 293 294 294 294 294 294 295 294 294 294 294 294 294 294 294 294 295
235 235 238 242 249 255 260 264 269 273 276 278 280 282 284 285 287 287 289 290 291 292 293 293 294 294 295 295 295 295 296 296 296 296 296 296 296 296 296 296 296 296 296 296
235 237 243 250 255 261 266 270 274 277 279 281 283 285 286 288 289 290 291 293 294 295 296 296 297 297 297 297 298 298 298 298 298 298 298 298 297 297 297 297 297 297 297 297
241 248 255 260 266 271 275 278 280 281 283 285 286 288 290 291 291 292 293 295 296 296 297 298 298 299 300 300 300 300 301 301 301 301 301 301 301 301 301 300 299 299 299 299
252 258 262 266 270 275 279 282 283 284 286 287 288 290 291 292 293 294 295 296 297 298 299 299 300 300 301 302 303 303 304 303 303 303 303 304 305 305 304 303 302 302 302 302
259 264 266 270 274 278 281 282 284 285 287 289 290 292 293 294 295 296 297 298 299 299 300 300 300 301 303 304 305 305 305 304 303 303 304 304 305 305 305 306 306 306 306 305
265 268 270 273 276 279 281 283 285 287 289 291 292 294 294 295 296 297 298 299 300 301 301 302 303 304 305 306 305 305 306 306 306 305 304 304 304 304 305 306 307 307 308 308
Height
5789 5791 5793 5795 5798 5799 5801 5803 5805 5808 5810 5812 5812 5813 5814 5814 5814 5814 5814 5814 5814 5815 5815 5816 5816 5816 5817 5818 5819 5820 5820 5822 5824 5826 5828 5830 5831 5832 5834 5835 5836 5837 5838 5838
5781 5783 5785 5787 5790 5792 5794 5796 5799 5801 5804 5806 5807 5808 5809 5810 5810 5811 5811 5811 5812 5812 5812 5813 5814 5814 5815 5816 5816 5818 5819 5820 5821 5823 5824 5825 5827 5828 5829 5830 5830 5831 5832 5832
5772 5775 5775 5777 5782 5784 5786 5789 5792 5795 5799 5799 5801 5802 5804 5805 5806 5807 5807 5808 5809 5809 5810 5810 5811 5811 5812 5813 5814 5814 5815 5816 5818 5819 5819 5820 5821 5822 5823 5824 5824 5824 5825 5825
5763 5766 5766 5772 5774 5776 5778 5782 5785 5788 5791 5793 5795 5797 5798 5800 5801 5802 5803 5804 5805 5805 5806 5807 5807 5807 5808 5809 5810 5811 5811 5812 5813 5814 5815 5815 5816 5816 5816 5817 5817 5817 5816 5816
5754 5756 5758 5762 5765 5768 5771 5774 5778 5781 5784 5786 5788 5791 5793 5794 5796 5797 5799 5799 5800 5801 5802 5802 5803 5804 5804 5805 5806 5806 5807 5807 5808 5808 5809 5809 5810 5809 5809 5810 5809 5808 5807 5807
5746 5748 5750 5755 5757 5760 5764 5767 5771 5774 5777 5780 5782 5785 5787 5788 5790 5792 5793 5794 5795 5796 5797 5798 5798 5799 5800 5800 5800 5801 5801 5802 5802 5802 5803 5803 5803 5802 5802 5801 5801 5800 5799 5798
5738 5740 5743 5747 5749 5753 5757 5762 5765 5767 5770 5773 5776 5779 5781 5782 5784 5786 5787 5788 5790 5790 5791 5792 5793 5794 5794 5794 5794 5794 5794 5794 5795 5795 5795 5795 5795 5795 5794 5793 5792 5791 5789 5788
5732 5734 5738 5739 5742 5746 5749 5753 5756 5760 5763 5766 5768 5771 5773 5776 5778 5779 5781 5782 5783 5784 5786 5787 5787 5788 5788 5788 5788 5788 5788 5788 5788 5788 5788 5787 5787 5786 5785 5784 5782 5781 5780 5778
5727 5730 5731 5732 5735 5738 5742 5746 5749 5752 5756 5758 5761 5764 5766 5769 5771 5773 5774 5776 5777 5778 5780 5781 5782 5782 5782 5782 5782 5782 5782 5781 5781 5780 5780 5779 5778 5777 5776 5774 5772 5770 5769 5767
5721 5723 5725 5727 5729 5732 5736 5740 5743 5746 5749 5752 5754 5757 5760 5762 5764 5766 5768 5769 5771 5772 5773 5774 5775 5775 5775 5775 5775 5775 5774 5773 5773 5772 5771 5770 5769 5767 5766 5764 5762 5760 5758 5756
5716 5718 5720 5722 5724 5727 5730 5733 5736 5739 5742 5745 5748 5751 5753 5755 5757 5758 5760 5762 5764 5765 5766 5767 5767 5768 5768 5768 5768 5767 5766 5766 5765 5764 5763 5761 5760 5758 5756 5754 5751 5749 5747 5744
5713 5714 5716 5718 5720 5723 5725 5728 5730 5733 5736 5738 5741 5743 5746 5748 5750 5752 5753 5755 5756 5757 5758 5759 5760 5760 5760 5760 5760 5759 5758 5757 5756 5755 5753 5751 5749 5747 5745 5743 5740 5738 5735 5733
5710 5711 5712 5714 5716 5718 5721 5723 5725 5728 5730 5732 5734 5737 5739 5741 5743 5744 5746 5747 5749 5751 5751 5752 5752 5753 5753 5752 5751 5750 5749 5748 5746 5745 5743 5741 5739 5737 5734 5732 5729 5726 5723 5720
5707 5708 5709 5711 5712 5714 5717 5719 5722 5724 5726 5727 5729 5732 5734 5735 5737 5738 5740 5742 5743 5744 5745 5745 5746 5745 5745 5744 5743 5741 5740 5738 5737 5735 5733 5730 5728 5725 5723 5720 5717 5714 5711 5708
5705 5706 5707 5708 5710 5711 5713 5716 5718 5720 5721 5723 5725 5727 5729 5731 5732 5734 5735 5736 5737 5738 5738 5738 5738 5737 5736 5735 5733 5732 5730 5728 5726 5724 5722 5719 5716 5714 5711 5708 5705 5701 5698 5694
5703 5704 5705 5706 5708 5710 5711 5713 5715 5716 5718 5720 5721 5723 5725 5726 5728 5729 5730 5731 5731 5731 5731 5731 5730 5729 5728 5726 5724 5722 5720 5718 5715 5713 5710 5708 5705 5701 5698 5695 5691 5688 5684 5680
5701 5702 5704 5705 5706 5707 5709 5711 5712 5714 5715 5717 5718 5720 5721 5722 5723 5724 5725 5725 5725 5725 5724 5723 5722 5720 5719 5717 5715 5712 5710 5707 5705 5702 5699 5696 5692 5689 5685 5681 5677 5673 5668 5664
5699 5701 5702 5703 5704 5706 5707 5709 5710 5711 5713 5714 5715 5716 5717 5718 5718 5719 5719 5719 5718 5717 5716 5715 5713 5711 5709 5707 5704 5702 5699 5696 5693 5690 5686 5683 5679 5675 5670 5666 5661 5657 5653 5648
5697 5698 5700 5701 5702 5704 5705 5706 5707 5709 5710 5710 5711 5712 5713 5713 5713 5713 5712 5712 5711 5709 5708 5706 5704 5702 5700 5697 5694 5691 5688 5685 5681 5677 5673 5669 5664 5660 5655 5650 5646 5641 5637 5632
5695 5696 5698 5699 5700 5702 5703 5703 5704 5705 5706 5706 5707 5707 5707 5707 5707 5706 5705 5704 5703 5701 5699 5697 5695 5692 5690 5687 5683 5680 5676 5672 5668 5664 5659 5654 5649 5644 5639 5635 5630 5626 5621 5617
5693 5694 5695 5697 5698 5699 5699 5700 5701 5701 5702 5702 5702 5702 5702 5701 5700 5699 5698 5696 5694 5692 5690 5688 5685 5682 5679 5675 5671 5667 5663 5659 5654 5649 5644 5639 5634 5629 5624 5620 5615 5611 5607 5603
5690 5691 5693 5694 5695 5695 5696 5696 5697 5697 5697 5697 5696 5696 5695 5694 5693 5692 5690 5688 5686 5683 5680 5677 5674 5670 5667 5663 5658 5654 5649 5644 5639 5634 5629 5624 5619 5615 5610 5606 5602 5598 5594 5590
5687 5688 5689 5690 5690 5691 5691 5692 5692 5692 5691 5691 5690 5689 5688 5686 5685 5683 5681 5678 5675 5672 5669 5666 5662 5658 5654 5649 5644 5639 5635 5629 5624 5619 5615 5610 5606 5602 5597 5593 5589 5586 5582 5579
5683 5684 5685 5685 5686 5686 5686 5686 5686 5685 5685 5684 5683 5681 5680 5678 5676 5673 5671 5668 5665 5661 5658 5654 5650 5645 5641 5636 5631 5626 5621 5616 5611 5607 5602 5598 5594 5590 5586 5582 5579 5575 5572 5569
5679 5680 5680 5681 5681 5681 5681 5680 5679 5679 5678 5676 5675 5673 5671 5669 5667 5664 5661 5657 5654 5650 5646 5642 5638 5633 5629 5624 5619 5614 5609 5605 5600 5596 5592 5588 5584 5580 5576 5573 5569 5566 5564 5561
5675 5675 5675 5675 5675 5675 5674 5673 5673 5671 5670 5668 5666 5664 5662 5659 5656 5653 5650 5646 5643 5639 5635 5630 5626 5622 5617 5613 5608 5603 5599 5595 5590 5586 5582 5579 5575 5571 5568 5565 5562 5559 5556 5554
5669 5669 5669 5669 5668 5668 5667 5666 5665 5663 5661 5659 5657 5655 5652 5649 5646 5643 5639 5636 5632 5628 5624 5620 5616 5611 5607 5603 5598 5594 5590 5585 5581 5578 5574 5570 5567 5564 5561 5558 5555 5553 5550 5548